Regional Weather Roundup
Issued by NWS Bismarck, ND

Home | Current Version | Previous Version | Text Only | Print | Product List | Glossary On
Versions: 1 2 3 4 5 6 7 8 9 10 11 12 13 14 15 16 17 18 19 20 21 22 23 24 25 26 27 28 29 30 31 32 33 34 35 36 37 38 39 40 41 42 43 44 45 46 47 48 49 50
000
ASUS43 KBIS 240910
RWRBIS

NWR BROADCAST TEXT
NATIONAL WEATHER SERVICE BISMARCK ND
400 AM CDT THU JUL 24 2014

NOTE: "FAIR" INDICATES FEW OR NO CLOUDS BELOW 12,000 FEET WITH NO
SIGNIFICANT WEATHER AND/OR OBSTRUCTIONS TO VISIBILITY.


CITY           SKY/WX    TMP DP  RH WIND       PRES   REMARKS
WILLISTON      CLOUDY    71  56  58 SE7G18    29.87F
MINOT          MOCLDY    64  60  87 E12       29.99F
MINOT AFB      MOCLDY    63  63 100 E13       30.00F
BISMARCK       CLEAR     65  57  75 SE12      30.02F
DICKINSON      CLEAR     63  55  75 SE16      29.91F
GARRISON         N/A     65  59  81 SE13      29.98F
HETTINGER ARPT PTCLDY    66  55  67 SE16G25   29.94F
JAMESTOWN      CLEAR     63  58  83 SE8       30.09F
CARRINGTON     FAIR      59  59 100 SE10      30.11F
CROSBY           N/A     64  64 100 E13       29.93R
HARVEY         FAIR      61  61 100 SE10      30.06F
HAZEN          FAIR      64  55  72 E8        29.99F
LINTON         FAIR      64  57  77 SE12G17   30.05F
MANDAN         PTSUNNY   64  55  72 SE13G20   30.03F
RUGBY          FAIR      63  59  88 SE12G20   30.06F
STANLEY        FAIR      64  64 100 SE15G21   29.96F
TIOGA          FAIR      64  64 100 SE21G28   29.95F
WATFORD CITY   FAIR      66  57  72 SE14G21   29.87F
$$

CITY           SKY/WX    TMP DP  RH WIND       PRES   REMARKS
GRAND FORKS    PTCLDY    60  57  89 E3        30.12F
GRAND FORKS AF PTCLDY    59  59  99 SE2       30.13F
DEVILS LAKE    PTCLDY    64  57  77 SE14      30.09F
FARGO          PTCLDY    62  58  86 E6        30.12F
CANDO          FAIR      59  57  94 SE8       30.10F
CAVALIER       FAIR      55  54  94 CALM      30.13F
GRAFTON        FAIR      55  55 100 CALM      30.12F
GWINNER        SUNNY     63  63 100 SE7       30.14S
LANGDON        FAIR      55  52  88 SE6       30.13F
ROLLA          FAIR      57  57 100 SE9       30.11F
WALHALLA         N/A     54  54 100 CALM        N/A
$$

CITY           SKY/WX    TMP DP  RH WIND       PRES   REMARKS
ABERDEEN       CLEAR     60  57  89 SE7       30.10F
MOBRIDGE       MOCLDY    67  58  72 SE18G25   30.01F
BUFFALO          N/A     68  57  68 E12G23    29.82F
RAPID CITY     CLOUDY    66  63  90 S6        29.95F
GLASGOW        MOCLDY    71  63  75 NE15      29.76F
SIDNEY         MOCLDY    70  55  60 SE6       29.86F
WOLF POINT     MOCLDY    71  58  63 CALM      29.78F
GLENDIVE       CLEAR     70  55  60 SE12      29.84F
MILES CITY     PTCLDY    70  62  76 N10       29.78F
BAKER          CLEAR     63  55  75 E13       29.86F
$$

CITY           SKY/WX    TMP DP  RH WIND       PRES   REMARKS
BILLINGS       CLEAR     72  60  66 W9        29.82F
GREAT FALLS    CLEAR     60  52  74 SW12      29.85S
REGINA         MOCLDY    63  61  94 SE15      29.90F
ESTEVAN        MOCLDY    63  61  94 E12       29.95
$$




USA.gov is the U.S. government's official web portal to all federal, state and local government web resources and services.